This demonstration page uses our WeatherBlox Daily Observations layout. Learn more.

Left ArrowRight Arrow

38.83388, -104.82136

Hourly Observations for January 6, 2022

Temp ( °F °C ) Dew Point ( °F °C ) Humidity (%) Winds ( mph kmh ) Pressure ( in mb ) Visibility ( mi km ) Precip ( " mm )
12:24 am 00:24 Cloudy with Light Snow 10 -12 0 -18 61 61 S 14 22 30.34 1027 5 8 0.00 0.00
12:54 am 00:54 Cloudy with Light Snow 11 -11.7 1 -17.2 64 64 SSE 13 20 30.11 1020 6 10 0.00 0.00
1:54 am 01:54 Cloudy with Light Snow 11 -11.7 1 -17.2 64 64 S 13 20 30.08 1019 6 10 0.01 0.25
2:50 am 02:50 Cloudy with Light Snow 9 -13 1 -17 72 72 S 12 19 30.38 1029 5 8 0.00 0.00
2:54 am 02:54 Cloudy with Light Snow 9 -12.8 2 -16.7 73 73 S 10 17 30.06 1018 4 6 0.00 0.00
3:54 am 03:54 Cloudy with Light Snow 8 -13.3 1 -17.2 73 73 S 10 17 30.05 1018 7 11 0.00 0.00
4:50 am 04:50 Cloudy with Light Snow 7 -14 1 -17 78 78 SSE 9 15 30.41 1030 7 11 0.00 0.00
4:54 am 04:54 Cloudy with Light Snow 7 -13.9 1 -17.2 76 76 S 9 15 30.15 1021 6 10 0.00 0.00
5:54 am 05:54 Cloudy with Light Snow 7 -13.9 2 -16.7 80 80 S 8 13 30.21 1023 5 8 0.00 0.00
6:54 am 06:54 Cloudy with Light Snow 7 -13.9 1 -17.2 76 76 S 10 17 30.24 1024 5 8 0.00 0.00
7:54 am 07:54 Cloudy with Light Snow 7 -13.9 1 -17.2 76 76 S 8 13 30.27 1025 6 10 0.00 0.00
8:24 am 08:24 Cloudy 7 -13.9 0 -17.8 73 73 S 5 7 30.45 1031 10 16 0.00 0.00
8:54 am 08:54 Cloudy 7 -13.9 1 -17.2 76 76 S 5 7 30.27 1025 10 16 0.00 0.00
9:54 am 09:54 Mostly Cloudy 9 -12.8 2 -16.7 73 73 VRB 6 9 30.27 1025 10 16 0.00 0.00
10:54 am 10:54 Partly Cloudy 12 -11.1 3 -16.1 67 67 SE 6 9 30.26 1025 10 16 0.00 0.00
11:54 am 11:54 Partly Cloudy 16 -8.9 4 -15.6 59 59 SW 3 6 30.20 1023 10 16 0.00 0.00
12:54 pm 12:54 Partly Cloudy 19 -7.2 4 -15.6 51 51 SSE 9 15 30.13 1020 10 16 0.00 0.00
1:54 pm 13:54 Mostly Cloudy 21 -6.1 5 -15 50 50 S 9 15 30.09 1019 10 16 0.00 0.00
2:54 pm 14:54 Mostly Cloudy 20 -6.7 5 -15 52 52 SE 9 15 30.08 1019 10 16 0.00 0.00
3:54 pm 15:54 Mostly Cloudy 20 -6.7 6 -14.4 55 55 VRB 3 6 30.07 1018 10 16 0.00 0.00
4:54 pm 16:54 Mostly Cloudy 19 -7.2 6 -14.4 57 57 SSE 6 9 30.08 1019 10 16 0.00 0.00
5:54 pm 17:54 Mostly Cloudy 18 -7.8 6 -14.4 59 59 SW 5 7 30.07 1018 10 16 0.00 0.00
6:54 pm 18:54 Mostly Cloudy 18 -7.8 6 -14.4 59 59 W 5 7 30.09 1019 10 16 0.00 0.00
7:54 pm 19:54 Mostly Cloudy 17 -8.3 5 -15 59 59 S 7 11 30.11 1020 10 16 0.00 0.00
8:54 pm 20:54 Mostly Cloudy 16 -8.9 6 -14.4 65 65 SE 5 7 30.08 1019 10 16 0.00 0.00
9:54 pm 21:54 Mostly Cloudy 17 -8.3 6 -14.4 62 62 NE 6 9 30.08 1019 10 16 0.00 0.00
10:54 pm 22:54 Mostly Clear 17 -8.3 7 -13.9 64 64 VRB 3 6 30.03 1017 10 16 0.00 0.00
11:54 pm 23:54 Mostly Clear 18 -7.8 7 -13.9 62 62 NNW 7 11 29.99 1016 10 16 0.00 0.00

Powered by AerisWeather